GW5292 Weather Reports


time (UTC)temp
C
wind
direction
speed
KPH
gust
KPH
rain 1hr
cm
rain 24hr
cm
rain mn
cm
humidity
%
barometer
mb
20260905100019 20 284 0.0 0.0 0.00 0.00 0.00 85 1011.2
20260905094524 20 329 0.0 0.0 0.00 0.00 0.00 84 1011.1
20260905093004 21 329 0.0 0.0 0.00 0.00 0.00 82 1011.1
20260905091510 21 329 0.0 4.8 0.00 0.00 0.00 80 1011.0
20260905090016 21 309 0.0 3.2 0.00 0.00 0.00 81 1011.1
20260905084526 21 349 0.0 3.2 0.00 0.00 0.00 83 1011.1
20260905083026 20 298 0.0 1.6 0.00 0.00 0.00 86 1011.1
20260905081507 21 350 0.0 0.0 0.00 0.00 0.00 86 1011.1
20260905080020 21 350 0.0 0.0 0.00 0.00 0.00 85 1011.1
20260905074525 21 350 0.0 0.0 0.00 0.00 0.00 85 1011.2
20260905073037 21 350 0.0 3.2 0.00 0.00 0.00 83 1011.2
20260905071532 20 38 0.0 0.0 0.00 0.00 0.00 92 1011.3
20260905070013 21 38 0.0 0.0 0.00 0.00 0.00 95 1011.3
20260905064516 21 38 0.0 0.0 0.00 0.00 0.00 95 1011.2
20260905063027 21 38 0.0 0.0 0.00 0.00 0.00 94 1011.4
20260905061528 21 38 0.0 0.0 0.00 0.00 0.00 94 1011.3
20260905060028 21 38 0.0 0.0 0.00 0.00 0.00 94 1011.4
20260905054516 21 38 0.0 0.0 0.00 0.00 0.00 93 1011.5
20260905053033 21 38 0.0 0.0 0.00 0.00 0.00 93 1011.6
20260905051527 21 38 0.0 1.6 0.00 0.00 0.00 94 1011.7
20260905050036 21 152 0.0 0.0 0.00 0.00 0.00 94 1011.7
20260905044544 22 152 0.0 1.6 0.00 0.00 0.00 93 1011.9
20260905043020 22 152 0.0 1.6 0.00 0.00 0.00 93 1012.0
20260905041527 22 152 0.0 1.6 0.00 0.00 0.00 92 1012.0
20260905040030 22 152 0.0 0.0 0.00 0.00 0.00 92 1012.0
20260905034549 22 152 0.0 0.0 0.00 0.38 0.00 91 1011.9
20260905033029 22 152 0.0 0.0 0.00 0.51 0.00 92 1012.2
20260905031527 22 152 0.0 3.2 0.00 0.51 0.00 92 1012.1
20260905030006 23 34 0.0 1.6 0.00 0.51 0.00 91 1012.0
20260905024508 23 34 0.0 0.0 0.00 0.51 0.00 90 1011.9
20260905023037 23 34 0.0 3.2 0.00 0.51 0.00 90 1011.7
20260905021520 23 34 0.0 1.6 0.00 0.51 0.00 1011.5
20260905020029 23 34 0.0 0.0 0.00 0.51 0.00 89 1011.5
20260905014505 23 34 0.0 0.0 0.00 0.51 0.00 89 1011.7
20260905013007 23 34 0.0 1.6 0.00 0.51 0.00 1011.7
20260905011517 23 116 0.0 0.0 0.00 0.51 0.00 88 1011.7
20260905010031 23 116 0.0 0.0 0.00 0.51 0.00 88 1011.6
20260905004530 23 116 0.0 0.0 0.00 0.51 0.00 88 1011.7
20260905003008 23 116 0.0 0.0 0.00 0.51 0.00 88 1011.7
20260905001519 23 116 0.0 0.0 0.00 0.51 0.00 87 1011.5
20260905000021 24 116 0.0 0.0 0.00 0.51 0.00 85 1011.4
20260904234533 25 116 0.0 0.0 0.00 0.51 0.00 84 1011.3
20260904233031 25 116 0.0 0.0 0.00 0.51 0.00 82 1011.2
20260904231511 25 116 0.0 0.0 0.00 0.51 0.00 82 1011.1
20260904230014 26 116 0.0 0.0 0.00 0.51 0.00 79 1011.1
20260904224520 26 116 0.0 0.0 0.00 0.51 0.00 78 1011.1
20260904223028 27 116 0.0 3.2 0.00 0.51 0.00 76 1011.3
20260904221531 27 116 0.0 3.2 0.00 0.51 0.00 73 1011.5
20260904220024 27 116 0.0 3.2 0.00 0.51 0.00 75 1011.5
20260904214517 27 150 0.0 0.0 0.00 0.51 0.00 72 1011.5
20260904213024 27 150 0.0 3.2 0.00 0.51 0.00 71 1011.6
20260904211530 27 193 0.0 3.2 0.00 0.51 0.00 71 1011.5
20260904210037 27 181 0.0 3.2 0.00 0.51 0.00 70 1011.5
20260904204515 28 184 1.6 4.8 0.00 0.51 0.00 67 1011.5
20260904203033 28 127 0.0 3.2 0.00 0.51 0.00 68 1011.3
20260904201528 28 156 0.0 3.2 0.00 0.51 0.00 66 1011.2
20260904200037 28 202 0.0 3.2 0.00 0.51 0.00 69 1011.5
20260904194547 27 52 0.0 3.2 0.00 0.51 0.00 68 1011.7
20260904193021 28 137 0.0 3.2 0.00 0.51 0.00 68 1012.2
20260904191538 28 126 1.6 4.8 0.00 0.51 0.00 68 1012.3
20260904190032 28 159 1.6 4.8 0.00 0.51 0.00 66 1012.4
20260904184534 28 178 1.6 8.0 0.00 0.51 0.00 66 1012.6
20260904183017 28 164 1.6 4.8 0.00 0.51 0.00 66 1012.8
20260904181523 28 179 3.2 4.8 0.00 0.51 0.00 65 1012.9
20260904180029 28 186 1.6 6.4 0.00 0.51 0.00 66 1012.9
20260904174556 28 169 1.6 6.4 0.00 0.51 0.00 67 1013.2
20260904173035 28 183 1.6 3.2 0.00 0.51 0.00 67 1013.1
20260904171505 28 170 0.0 6.4 0.00 0.51 0.00 68 1013.0
20260904170004 27 190 1.6 4.8 0.00 0.51 0.00 71 1012.9
20260904164507 27 159 1.6 4.8 0.00 0.51 0.00 71 1013.2
20260904163004 27 236 1.6 6.4 0.00 0.51 0.00 69 1013.4
20260904161505 27 30 1.6 8.0 0.00 0.51 0.00 74 1013.3
20260904160006 27 159 0.0 3.2 0.00 0.51 0.00 71 1013.3
20260904154504 27 219 1.6 4.8 0.00 0.51 0.00 69 1013.3
20260904153008 27 228 1.6 4.8 0.00 0.51 0.00 73 1013.5
20260904151507 27 319 0.0 3.2 0.00 0.51 0.00 76 1013.4
20260904150010 26 11 1.6 4.8 0.00 0.51 0.00 77 1013.5
20260904144508 26 190 1.6 4.8 0.00 0.51 0.00 76 1013.6
20260904143006 25 209 1.6 6.4 0.00 0.51 0.00 77 1013.6
20260904141509 24 184 1.6 3.2 0.00 0.51 0.00 81 1013.6
20260904140011 24 196 0.0 8.0 0.00 0.51 0.00 80 1013.7
20260904134511 24 187 3.2 6.4 0.00 0.51 0.00 81 1013.6
20260904133013 23 182 1.6 4.8 0.00 0.51 0.00 82 1013.6
20260904131512 23 186 1.6 4.8 0.00 0.51 0.00 86 1013.7
20260904130012 23 215 1.6 3.2 0.00 0.51 0.00 86 1013.7
20260904124513 23 181 1.6 3.2 0.00 0.51 0.00 87 1013.8
20260904123014 22 198 0.0 3.2 0.00 0.51 0.00 89 1013.7
20260904121513 22 192 0.0 3.2 0.00 0.51 0.00 91 1013.5
20260904120017 21 207 1.6 3.2 0.00 0.51 0.00 93 1013.8
20260904114515 21 194 0.0 3.2 0.00 0.51 0.00 94 1013.6
20260904113020 21 198 0.0 3.2 0.00 0.51 0.00 95 1013.4
20260904111519 20 195 1.6 3.2 0.00 0.51 0.00 95 1013.4
20260904110036 20 199 0.0 0.0 0.00 0.53 0.00 94 1013.3
20260904104518 21 199 0.0 1.6 0.00 0.53 0.00 94 1013.0
20260904103023 21 199 0.0 3.2 0.00 0.53 0.00 93 1012.8
20260904101524 21 197 1.6 3.2 0.00 0.56 0.00 94 1012.8